CZ-6A DEB

Satellite information

Favourite Embed

Satellite Type and Status

DEBRISIN ORBIT

Key statistics

Satellite CZ-6A DEB at a glance.

Uptime

395

Days in orbit

Revolutions

≈ 14.4

Per day

Orbit

LEO

Low Earth Orbit

Inclination

89.0

Latest

Satellite identification and parameters

Extended collection of information and parameters for CZ-6A DEB.

Object identification

Identified? True

Debris? True

Object name: CZ-6A DEB

International designator: 2024-140EV

Object number (NORAD): 60770

Object ID (CCSDS): 60770

Country: PEOPLES REPUBLIC OF CHINA (PRC)

Current information (Y/N): Y

RCS size: SMALL

Orbital parameters

Period: 100.213 minutes

Inclination: 89.0283 deg

SMA: 7146.76 km

Apoapsis: 794.541 km

Periapsis: 742.708 km

RAAN: 306.907 deg

Eccentricy: 0.0036263

Argument of periapsis: 166.4839 deg

Mean anomaly: 193.7341 deg

Mean motion: 14.3694117 rev/day

Mean motion (dot): 0.00000753 rev/day2

B* drag term: 0.00024752302 1/REarth

Two-line elements (TLE)

Creation date: Sept. 4, 2025, 10:13 a.m.

Reference frame: TEME

Reference center: EARTH

Epoch: Sept. 4, 2025, 5:08 a.m. UTC

TLE line 0: 0 CZ-6A DEB

TLE line 1: 1 60770U 24140EV 25247.21407854 .00000753 00000-0 24752-3 0 9990

TLE line 2: 2 60770 89.0283 306.9070 0036263 166.4839 193.7341 14.36941170 53938

Live tracking on map

Real-time ground track for satellite CZ-6A DEB.

In-orbit conjunctions

A list of the most updated potential collisions computed for object CZ-6A DEB.

Target Orbit TCA Probability of collision Miss distance Type
FENGYUN 1C DEB SSO 2024-11-15 02:52:42 0.0003725976 874.0 (m) DEBRIS
CZ-6A DEB LEO 2024-11-11 22:01:10 0.0001881657 625.0 (m) DEBRIS
IRIDIUM 33 DEB LEO 2024-11-04 21:58:28 0.0001418288 613.0 (m) DEBRIS
COSMOS 2251 DEB LEO 2024-10-14 19:56:48 0.0002099434 801.0 (m) DEBRIS
IRIDIUM 33 DEB LEO 2024-10-14 04:19:53 0.0004792615 265.0 (m) DEBRIS

Associated space launch

18 Low Earth Orbit communication satellites with Ku, Q and V band payloads for the G60 constellation operated by Shanghai Spacecom Satellite Technology (SSST) with funding backed by the Shanghai local government. Initial constellation will consist of 1296 satellites by 2027 with long term plans to expand it to 12000 satellites.

CZ-6A DEB was lifted into orbit during the mission ‘Long March 6A | G60 Polar Group 01’, on board a Long March 6A space rocket.

The launch took place on Aug. 6, 2024, 6:42 a.m. from Launch Complex 9A.

For more information about the launch, click the button.

Launch to space Long March 6A | G60 Polar Group 01
Long March 6A | G60 Polar Group 01

Agency: N/A

Status: Launch Successful

Launch date: Aug. 6, 2024, 6:42 a.m. UTC

Rocket: Long March 6A

Launch pad: Launch Complex 9A

Location: Taiyuan Satellite Launch Center, People's Republic of China

...

Latest news about this satellite

News about space launch
Brightness of first Chinese broadband constellation satellites alarms astronomers

The first satellites of a Chinese broadband constellation are significantly brighter than those of Western systems, posing a new challenge for astronomers.

News about space launch
Chinese rocket stage breaks up into cloud of more than 700 pieces of space debris

HELSINKI — A Chinese Long March 6A rocket’s upper stage has fragmented into a cloud of over 700 pieces of space debris, adding to concerns about long-term orbital safety. China […]

News about space launch
China's Thousand Sails Megaconstellation Kicks Off with Dangerous Debris Field

China's Thousand Sails Megaconstellation Kicks Off with Dangerous Debris Field


Newsletter sign-up

Weekly statistics, charts and insights to help you stay on top of the space industry.